sat.trackr.live / text

‹ back to catalog

STARLINK-37076

NORAD 68173 · 2026-050G

PAYLOAD ACTIVE UNKNOWN

§ Identity

Operator
Country
US
Launch date
2026-03-14
Launch site
AFETR
Launch vehicle
Mass (kg)
RCS (m²)

Purposes: comms

External: N2YO · Heavens-Above · Gunter

§ Orbital elements

Epoch: 2026-05-25T01:57:29.683584Z

Period
93.85 min
Inclination
53.1606°
Eccentricity
0.0001324
Mean motion
15.34403285 rev/d
Perigee alt
461.8 km
Apogee alt
463.6 km
Semi-major
6,840.8 km
B*
6.9746e-4
RAAN
271.5910°
Arg perigee
92.9155°
Mean anomaly
267.1999°
Rev number
1,238

§ Raw data

STARLINK-370761 68173U 26050G   26145.08159356  .00023264  00000+0  69746-3 0  99942 68173  53.1606 271.5910 0001324  92.9155 267.1999 15.34403285 12386

JSON: /api/v1/satellites/68173 · /tle

For live sub-satellite position, see the globe view (requires WebGL).

§ Visibility from observer

Set your observer location to see the next 7 days of passes ≥ 10°. The values pass through the URL so the page stays shareable.

No JS? Fill the form by hand. The geolocation button needs JavaScript.